Душак

Туркменистан     37°11′28″N   60°00′48″E
В апреле 2022 года жителям России запретили посещать сайт meteo.paraplan.net по решению Генеральной прокуратуры. Аудитория сайта уменьшилась в 10 раз. Владельцы сайта не видят смысла в поддержке погодного сервера в таких условиях. Сайт будет закрыт в октябре.
темп.,
°C
ветер,
м/с
пор.,
м/с
влажн.,
%
обл.,
%
осадки,
мм/ч
давл.,
гПа
погр.,
м
26 сентября, пн
пн2623:00+28зсз712390 0.0 1015456
02:00+27зсз914397 0.0 1016636
05:00+24зсз9134317 0.0 1018544
08:00+22сз912490 0.0 1021795
11:00+25сз910410 0.0 10211194
14:00+28ссз77340 0.0 10191566
17:00+28ссз66310 0.0 10191755
20:00+26сз45340 0.0 102084
27 сентября, вт
вт2723:00+23с12370 0.0 102014
02:00+21вюв11380 0.0 101911
05:00+21вюв34350 0.0 101838
08:00+20в46310 0.0 1019193
11:00+25вюв56210 0.0 1018808
14:00+29вюв66190 0.0 10151249
17:00+30вюв56190 0.0 10141449
20:00+26вюв45230 0.0 101456
28 сентября, ср
ср2823:00+24вюв47240 0.0 1014100
02:00+22вюв59210 0.0 1013156
05:00+20вюв510200 0.0 1013166
08:00+20вюв510190 0.0 1013259
11:00+27вюв89110 0.0 1013738
14:00+31вюв88110 0.0 10101273
17:00+32вюв77120 0.0 10091292
20:00+27вюв58170 0.0 100996
29 сентября, чт
чт2923:00+25вюв58200 0.0 1009116
02:00+22вюв610225 0.0 1009150
05:00+21вюв59231 0.0 1008130
08:00+21вюв59220 0.0 1009194
11:00+29вюв78140 0.0 1009653
14:00+34вюв66120 0.0 10071305
17:00+35вюв66120 0.0 10061237
20:00+29в45170 0.0 100755
30 сентября, пт
пт3023:00+26вюв45202 0.0 100949
02:00+24вюв45210 0.0 100958
05:00+22вюв33223 0.0 100928
08:00+22в22200 0.0 101238
11:00+28св21140 0.0 1013494
14:00+32с33120 0.0 10121265
17:00+32ссз44120 0.0 10121784
20:00+27сз33160 0.0 101420